Location: *
(46.1333°S, 161.2167°W)
Time: 03:46:55
(UTC+00:00)

CZ-2C R/B - Pass Details

Date: 15 July 2020
Orbit: 703 x 909 km, 98.1° (Epoch: 10 August)

Event Time Altitude Azimuth Distance (km) Brightness Sun altitude
Rises 17:24:50 0° 28° (NNE) 3,206 7.1 -9.6°
Reaches altitude 10° 17:27:06 10° 32° (NNE) 2,316 6.4 -9.3°
Maximum altitude 17:32:06 57° 109° (ESE) 955 3.8 -8.5°
Drops below altitude 10° 17:37:28 10° 186° (S) 2,478 5.4 -7.6°
Sets 17:39:57 0° 189° (S) 3,451 6.1 -7.2°
